Location: Rounton
(54.4000°N, 1.3500°W)
Time: 18:52:30
(UTC+01:00)

S-56A Canister/Altair - Pass Details

Date: 11 September 2024
Orbit: 636 x 2487 km, 38.9° (Epoch: 06 October)

Event Time Altitude Azimuth Distance (km) Brightness Sun altitude
Rises 22:41:40 0° 242° (WSW) 3,935 11.3 -24.7°
Reaches altitude 10° 22:44:23 10° 232° (SW) 3,208 10.7 -24.9°
Enters shadow 22:50:06 30° 187° (S) 2,452 9.7 -25.4°
Maximum altitude 22:51:23 31° 173° (S) 2,497 - -25.5°
Drops below altitude 10° 23:01:02 10° 118° (ESE) 4,482 - -26.4°
Sets 23:05:38 0° 110° (ESE) 5,740 - -26.7°
